CAPE
0 0 0 0 0 0 0 32 1 0 0 86 91 108 234 497 474 290 338 749 400 333 0 0 0 1 85 1923 2466 2090 2568 2863 2907 3150 3189 3154 2998 2903 2992 2856 2950 3155 2935 3109
0 0 0 0 0 17 52 8 31 15 6 13 318 159 183 349 508 364 310 524 436 377 155 0 0 1 277 2380 3139 2441 2302 2197 2122 2599 2806 2854 2843 2827 3120 2850 3214 3241 3064 2927
0 0 0 0 0 0 0 1 23 27 35 65 395 218 227 159 302 500 371 280 327 224 168 147 154 718 902 1831 2037 2055 3684 2914 3329 2780 2559 2657 2759 3117 3203 3465 3709 3202 3095 3198
0 0 0 0 0 0 0 0 3 0 9 171 243 238 103 135 309 241 102 291 272 333 401 527 524 278 481 1394 2529 2466 2249 4018 4198 4447 3339 3133 4023 3859 3424 3652 3598 3694 3188 3208
0 0 0 0 0 0 0 0 0 0 5 243 410 280 138 94 111 1 0 167 289 359 490 517 429 301 967 720 1405 2737 2593 2715 4212 4193 4624 4011 4148 4235 3935 3940 3738 3917 3660 3292
0 0 0 0 0 0 0 0 65 88 207 249 448 448 291 86 63 52 64 279 404 456 540 616 595 493 308 684 1430 1847 2442 3049 3254 4265 4430 4325 4243 4336 4169 4074 4000 3956 3654 3270
19 31 28 15 4 19 39 28 124 155 173 324 359 324 56 3 68 154 107 296 539 738 768 841 868 828 825 1076 1201 1457 2851 2428 3148 4302 4325 4420 4322 4320 4245 4169 3991 3804 3502 3358
1 7 9 20 0 25 22 27 96 3 428 315 169 216 70 66 77 33 97 436 608 759 818 683 698 760 784 997 1521 1510 1605 2249 2373 2877 4287 4294 4378 4360 4291 4238 3856 3638 3184 3373
0 0 1 0 0 0 0 0 314 393 281 157 81 6 0 275 242 104 230 470 682 1005 907 833 912 954 752 742 1374 1554 1625 1853 2266 2640 3535 4064 3854 3953 3953 3786 3393 2025 196 5
0 0 0 6 0 0 0 0 0 32 331 174 95 111 121 432 524 345 536 800 961 1099 1117 1028 997 1145 1149 934 969 1427 1264 1448 1672 2162 2751 1985 746 1085 800 802 233 46 3 11
0 6 16 7 4 0 0 8 16 15 55 0 0 173 322 241 260 505 557 892 1156 1128 1074 1079 954 826 800 889 999 1007 1158 1503 1503 2259 987 1 1 1 67 1 364 2 0 0
48 0 0 0 0 0 0 3 22 28 40 41 76 11 283 191 184 311 498 817 1217 1328 1066 782 833 823 849 951 1164 1021 1262 1494 1886 1340 29 0 0 0 0 4 0 0 0 0
0 0 0 0 0 0 5 0 6 6 6 58 129 57 169 222 164 226 398 534 1340 1031 976 826 607 515 539 720 812 819 880 1071 1565 576 23 0 0 0 0 2 2 1 0 1
0 0 0 0 0 85 89 12 0 1 0 0 0 48 45 109 362 358 377 1080 1006 959 796 667 500 382 340 391 531 785 1005 1551 1042 441 97 1 0 1 0 0 0 0 1 1
0 0 0 0 3 36 47 31 48 17 4 81 75 63 1 21 50 8 1153 1068 953 790 624 458 331 221 161 167 269 577 804 1313 1088 658 527 97 0 6 66 1 0 0 0 0
0 0 0 0 0 6 1 62 27 18 0 0 0 0 0 67 419 873 1073 778 806 605 437 326 143 52 126 89 173 597 894 1132 1217 891 427 186 79 149 70 0 0 0 0 0
0 0 0 0 0 0 1 21 81 19 0 0 0 0 0 6 273 853 781 799 839 556 321 140 19 0 20 309 396 445 601 832 1073 781 413 241 195 259 122 2 0 0 0 0
0 0 0 0 21 72 3 0 134 6 5 0 0 3 30 0 0 9 750 1041 290 148 115 65 10 1 5 40 122 277 564 450 620 552 600 297 281 368 24 0 0 0 0 0
0 2 7 2 6 28 7 21 67 37 18 9 54 68 0 0 46 776 780 574 191 102 43 10 0 2 22 81 2 427 546 374 336 434 582 378 407 166 26 0 0 0 0 0
0 10 19 12 5 7 4 21 49 131 79 74 25 347 545 715 742 790 527 293 171 64 25 8 7 1 4 2 3 0 366 381 549 628 420 68 16 1 0 0 0 0 0 0
0 18 23 17 0 0 0 5 12 8 10 13 336 398 646 709 684 592 423 180 55 14 14 5 2 4 1 7 2 0 3 263 100 48 12 5 0 0 0 0 0 0 0 0
0 2 11 0 4 0 0 0 0 4 7 99 339 339 597 571 565 137 64 90 8 1 2 1 1 0 0 1 2 0 89 92 21 2 0 0 0 0 0 0 0 0 0 0
25 28 25 0 6 1 0 0 0 2 21 183 229 311 523 587 553 289 98 35 1 0 1 0 0 0 0 2 9 18 22 0 0 0 0 0 0 0 0 0 0 0 0 0
49 53 39 27 2 1 0 0 0 0 4 41 115 341 516 650 482 217 56 6 0 0 2 0 0 0 0 0 0 0 0 0 0 0 0 0 0 0 0 0 0 0 0 0
6 6 14 12 9 6 4 0 0 0 5 7 233 351 685 688 408 75 16 0 0 24 28 36 9 0 0 0 0 0 0 0 0 0 0 0 0 0 0 0 0 0 0 0
10 12 12 15 12 5 1 0 0 2 79 231 286 615 647 416 104 79 49 46 0 3 28 64 26 0 0 0 0 0 0 0 0 0 0 0 0 0 0 0 0 0 0 0
5 7 2 4 6 1 0 0 0 122 310 443 436 672 542 76 91 143 110 6 28 13 5 52 94 2 0 0 0 0 0 0 0 0 0 0 0 0 0 0 0 0 0 0
CIN
0 0 0 0 0 0 -8 -25 -39 0 -12 -52 -113 -68 -48 -109 -137 -190 -187 -263 -420 -576 0 0 0 -226 -559 -248 -153 -120 -131 -126 -126 -131 -133 -130 -139 -148 -132 -118 -99 -77 -64 -35
0 0 0 0 0 -75 -50 -73 -68 -90 -121 -119 -123 -87 -96 -140 -139 -139 -184 -183 -351 -405 -600 0 0 -10 -482 -158 -94 -118 -125 -170 -223 -178 -153 -158 -170 -170 -155 -136 -98 -89 -85 -58
0 0 0 0 0 0 0 -22 -60 -65 -70 -98 -96 -105 -124 -274 -279 -130 -126 -119 -164 -347 -382 -505 -520 -352 -300 -195 -199 -155 -80 -100 -126 -197 -196 -189 -186 -165 -150 -139 -94 -130 -112 -63
0 0 0 0 0 0 0 0 -25 0 -36 -71 -110 -147 -391 -399 -421 -376 -349 -107 -101 -240 -306 -273 -239 -301 -351 -208 -89 -134 -197 -112 -85 -80 -156 -179 -120 -126 -148 -135 -117 -111 -132 -99
0 0 0 0 0 0 0 0 0 0 -13 -55 -103 -126 -259 -506 -568 -200 0 -425 -231 -230 -213 -298 -250 -318 -251 -294 -243 -112 -125 -151 -69 -52 -49 -109 -96 -102 -120 -106 -123 -90 -84 -94
0 -1 0 0 0 0 0 0 -74 -91 -92 -88 -104 -132 -131 -214 -246 -239 -156 -86 -107 -140 -189 -250 -249 -314 -359 -265 -190 -169 -107 -53 -64 -45 -46 -58 -77 -76 -79 -84 -84 -62 -77 -81
-27 -15 -9 -66 -66 -40 -18 -73 -109 -114 -164 -134 -86 -147 -218 -151 -109 -109 -92 -90 -112 -129 -122 -136 -182 -236 -260 -226 -199 -187 -61 -120 -53 -21 -39 -56 -66 -59 -48 -43 -37 -31 -48 -44
-17 -27 -18 -75 -3 -37 -60 -110 -73 -66 -141 -161 -191 -147 -95 -135 -154 -140 -146 -78 -94 -144 -164 -217 -224 -174 -186 -198 -129 -139 -142 -77 -87 -73 -25 -31 -32 -33 -27 -19 -22 -20 -33 -28
0 -1 -14 -13 0 0 0 0 -102 -46 -140 -213 -196 -185 0 -118 -108 -146 -104 -85 -74 -79 -120 -153 -133 -122 -175 -175 -104 -87 -87 -85 -45 -51 -28 -23 -11 -9 -3 -7 -32 -109 -539 -60
0 0 0 -226 0 0 0 0 0 -184 -69 -136 -164 -208 -151 -81 -110 -139 -108 -65 -50 -65 -83 -116 -127 -109 -89 -129 -167 -84 -116 -107 -84 -40 -33 -150 -547 -431 -431 -351 -334 -260 -200 -631
0 -57 -167 -31 -140 0 0 -237 -211 -230 -189 0 0 -115 -54 -100 -167 -136 -81 -62 -42 -54 -78 -111 -126 -129 -145 -117 -116 -126 -115 -74 -72 -8 -306 0 0 0 -431 0 -342 -314 0 0
-121 0 0 0 0 0 0 -169 -211 -189 -196 -215 -190 -159 -56 -57 -83 -125 -80 -66 -32 -45 -92 -128 -137 -132 -130 -103 -52 -78 -65 -56 -12 -105 -629 0 0 0 0 0 0 0 0 0
0 0 0 0 0 0 -289 -31 -273 -252 -238 -160 -133 -142 -104 -40 -75 -99 -97 -62 -58 -71 -97 -131 -168 -192 -210 -140 -81 -80 -96 -121 -48 -289 -590 0 0 0 0 0 0 0 0 0
0 0 0 0 -21 -118 -163 -246 0 -193 0 0 0 -142 -258 -186 -54 -54 -126 -64 -87 -104 -125 -144 -150 -177 -236 -182 -136 -72 -64 -24 -102 -322 -512 -90 0 0 0 0 0 0 0 0
0 0 0 0 -97 -162 -160 -154 -133 -187 -206 -93 -90 -120 -25 -124 -262 -41 -74 -87 -102 -109 -139 -169 -167 -208 -234 -213 -187 -123 -84 -24 -43 -205 -268 -504 0 -293 -608 0 0 0 0 0
0 0 0 0 0 -126 -49 -91 -91 -138 -14 0 0 0 0 -276 -151 -93 -70 -124 -104 -118 -149 -162 -179 -204 -203 -252 -196 -49 -23 -12 -4 -67 -275 -386 -452 -403 -445 0 0 0 0 0
0 0 0 0 -6 0 -11 -119 -46 -58 0 0 0 0 0 -322 -171 -82 -89 -104 -79 -132 -138 -150 -177 -6 -182 -25 -12 -26 -15 -5 -12 -70 -207 -265 -266 -217 -300 -265 0 0 0 0
0 0 0 0 -113 -143 -9 0 -38 -81 -45 0 0 -88 -204 0 0 -122 -64 -20 -201 -211 -180 -126 -90 0 -1 -97 -47 -25 -2 -18 -14 -43 -60 -150 -121 -71 -260 0 0 0 0 0
0 -6 -11 -8 -11 -60 -45 -26 -114 -71 -86 -49 -78 -79 0 0 -18 -29 -35 -69 -141 -125 -128 -65 0 -2 -2 -16 -16 -26 -2 -6 -22 -18 -10 -48 -36 -129 -273 0 0 0 0 0
0 -8 -5 -12 -31 -17 -50 -44 -38 -33 -96 -89 -163 -19 -19 -11 -13 -29 -41 -64 -63 -40 -22 -18 -4 -3 0 0 -6 0 -8 -1 -3 -7 -18 -144 -238 -249 -38 0 0 0 0 0
-1 -11 -13 -14 0 0 0 -37 -62 -57 -71 -67 -11 -23 -17 -10 -8 -16 -27 -40 -54 -40 -5 -4 0 0 0 -3 0 0 -10 -5 -67 -98 -152 -229 0 0 0 0 0 0 0 0
0 -19 -16 -1 -12 0 0 0 -28 -84 -71 -86 -19 -33 -21 -13 -12 -104 -96 -56 -19 -8 -55 0 0 0 0 0 -1 0 -42 -16 -42 -23 0 0 0 0 0 0 0 0 0 0
-8 -9 -6 0 -9 -2 0 0 0 -45 -52 -34 -17 -26 -18 -13 -18 -50 -79 -51 -40 0 -80 -87 0 0 0 0 -16 -5 -2 0 -13 0 0 0 0 0 0 0 0 0 0 0
-13 -5 -8 -8 -13 -11 0 0 0 0 -52 -57 -35 -12 -15 -11 -36 -98 -129 -25 0 0 -84 0 0 0 0 0 0 0 0 0 0 0 0 0 0 0 0 0 0 0 0 0
-21 -2 -10 -7 -12 -24 -22 0 0 -4 -53 -7 -45 -20 -17 -23 -40 -90 -137 0 -47 -67 -73 -98 -126 -6 0 0 0 0 0 0 0 0 0 0 0 0 0 0 0 0 0 0
-4 -2 -10 -7 -12 -26 -5 0 0 -17 -49 -22 -31 -16 -16 -65 -133 -84 -82 -73 -26 -103 -66 -109 -162 0 0 0 0 0 0 0 0 0 0 0 0 0 0 0 0 0 0 0
-26 -25 -34 -35 -34 -5 0 0 0 -25 -23 -20 -26 -10 -11 -115 -84 -37 -39 -65 -69 -93 -136 -135 -117 -41 0 0 0 0 0 0 0 0 0 0 0 0 0 0 0 0 0 0
Wind_Speed
10 12 13 12 13 10 5 6 1 11 6 4 7 13 14 15 13 15 13 10 5 4 3 10 1 5 6 8 6 8 12 14 14 13 14 13 13 11 13 11 12 11 9 7
5 7 11 11 10 10 13 10 8 10 12 5 3 9 12 11 13 13 11 11 7 1 5 7 7 8 8 5 3 5 7 11 8 11 12 14 13 14 11 13 10 10 9 9
4 9 11 7 8 9 8 7 4 4 9 9 3 7 16 9 13 8 11 7 8 8 5 6 7 6 6 6 3 6 6 6 6 9 11 12 12 11 12 11 8 11 10 8
5 6 7 10 9 8 8 6 9 10 12 6 3 2 11 8 15 12 10 4 2 6 6 3 4 7 6 6 4 7 6 5 4 6 8 8 10 11 10 8 10 9 10 9
4 5 7 8 8 6 6 7 8 6 5 7 12 12 7 11 10 8 6 6 3 3 3 3 4 5 6 7 6 5 7 7 6 7 7 9 10 9 10 9 7 7 8 9
3 5 6 7 9 12 7 5 12 13 15 12 12 7 1 9 12 13 10 6 6 3 3 5 6 5 4 5 5 7 7 7 8 8 10 11 9 9 9 9 8 7 9 9
3 2 4 5 7 9 3 5 8 10 8 12 7 7 2 4 4 6 5 6 5 7 4 1 3 6 7 7 6 6 6 11 12 9 10 9 10 9 10 10 8 7 8 6
2 2 4 6 6 2 6 6 4 6 7 5 7 6 4 4 5 4 4 4 6 6 5 3 3 4 6 7 7 7 7 8 12 15 8 8 11 11 12 12 12 10 8 5
2 3 2 6 4 8 8 5 8 4 3 3 2 6 6 4 1 1 3 2 3 4 3 1 1 2 4 7 7 7 7 8 10 11 13 8 10 11 10 10 10 7 11 8
7 7 9 11 15 16 15 12 9 9 8 5 3 8 8 6 3 2 2 3 1 2 1 1 2 1 3 7 8 7 7 7 8 9 12 3 4 4 5 4 7 3 8 16
5 8 9 13 12 12 15 15 15 16 8 3 9 15 6 5 5 5 5 3 3 3 4 4 3 5 6 7 8 8 7 6 8 7 4 6 6 5 2 2 10 15 10 10
1 4 2 7 13 15 13 11 13 13 14 12 8 11 9 7 7 6 7 7 7 6 3 5 4 5 6 7 7 7 8 5 5 2 5 5 6 6 14 6 6 5 7 8
3 6 6 9 10 12 12 15 17 16 16 16 15 13 14 8 8 11 10 9 7 6 5 6 6 7 6 6 7 9 10 7 4 7 8 9 6 10 8 6 9 5 14 13
3 6 4 9 12 13 10 13 14 14 14 15 17 9 13 19 7 7 9 8 5 4 5 6 7 9 6 6 8 12 10 12 6 8 9 8 8 10 10 10 10 5 3 5
6 7 7 9 10 11 11 10 13 13 14 14 12 10 11 16 18 12 6 5 5 5 7 7 7 10 8 7 9 13 12 8 8 9 10 10 10 8 8 10 6 4 3 8
6 5 8 8 12 11 14 14 11 12 12 13 14 11 11 19 16 10 8 7 5 5 6 6 7 13 12 10 12 12 11 15 13 12 10 10 9 8 9 10 10 9 5 4
4 6 8 10 11 10 13 12 8 9 12 9 10 9 13 12 13 6 6 5 1 2 5 7 13 13 13 13 13 8 8 7 18 13 14 11 9 9 7 8 8 7 10 6
6 7 9 9 12 11 12 12 9 8 7 11 18 20 12 7 15 11 8 4 5 6 6 9 11 14 13 12 8 9 8 7 11 13 12 12 9 9 8 9 10 11 8 5
7 7 7 9 10 7 12 13 11 9 9 15 13 14 8 13 17 7 7 3 3 6 9 10 14 16 7 8 6 3 11 11 11 11 12 13 11 11 10 10 10 10 9 8
9 8 9 10 13 9 9 11 12 8 9 14 14 7 6 6 6 7 6 2 2 4 8 9 10 13 15 14 16 4 6 13 13 11 12 12 13 12 12 12 11 10 11 12
9 8 9 8 10 11 13 11 9 13 14 14 8 7 7 7 6 6 3 1 5 6 7 11 10 9 7 5 9 10 8 5 11 15 15 12 14 14 12 12 13 12 12 13
8 8 10 8 10 11 12 13 10 13 14 12 7 7 7 6 6 4 3 5 2 8 5 7 9 18 17 21 14 10 17 15 13 13 14 16 14 13 14 13 14 13 13 12
10 9 9 7 10 10 11 12 11 14 13 9 8 7 6 3 5 3 3 5 3 6 5 6 12 16 23 14 18 20 18 18 18 16 16 16 15 14 14 14 13 13 12 11
10 10 10 7 6 8 12 12 11 13 13 11 10 5 4 4 2 3 7 9 7 6 6 7 10 12 17 12 14 16 17 17 17 16 16 18 14 14 13 13 13 12 11 12
10 10 8 7 7 8 11 10 8 11 10 12 5 4 4 3 4 4 6 6 10 6 4 10 13 13 12 12 14 16 15 15 15 15 14 14 14 13 12 12 12 11 11 9
10 7 7 8 7 7 7 7 8 6 5 5 3 1 0 3 6 7 6 7 8 5 4 6 7 8 13 13 14 15 14 15 15 14 15 13 13 12 12 11 11 11 9 8
8 8 5 5 5 5 6 7 7 5 4 4 5 3 3 5 3 7 8 9 7 8 6 5 6 7 12 13 13 13 13 13 14 13 12 12 12 12 12 10 10 8 7 7
Wind_Direction
288 299 298 304 313 322 299 281 25 284 307 201 155 134 140 141 114 94 79 81 56 312 190 202 103 321 305 347 204 183 181 184 198 193 193 195 200 199 200 200 203 195 192 191
311 312 331 328 333 332 320 321 336 312 315 304 189 113 55 46 62 97 104 105 138 98 303 252 260 278 318 316 360 213 187 195 186 192 189 195 199 202 192 200 190 185 183 190
306 323 325 338 316 317 310 281 267 300 285 310 93 185 120 94 82 57 78 52 115 171 209 279 282 269 340 336 21 321 290 233 198 185 196 197 198 195 200 186 167 183 183 179
256 294 286 256 275 300 313 296 291 340 325 23 194 148 89 100 112 108 90 199 173 114 118 98 343 322 316 324 254 285 277 260 234 189 194 196 182 189 188 180 176 173 182 183
211 240 267 306 292 304 322 308 326 313 312 21 16 67 72 122 116 134 103 215 170 107 134 177 246 283 303 324 320 318 306 293 234 226 202 189 193 177 180 174 181 169 177 188
219 224 253 254 328 351 349 334 354 17 357 68 61 81 33 138 150 175 164 116 92 53 7 20 316 293 326 309 336 327 314 306 266 222 211 192 182 181 182 180 182 178 176 182
256 260 297 25 4 337 354 272 338 9 43 1 96 140 140 52 69 99 108 116 123 105 108 161 360 12 350 332 329 309 338 332 326 258 210 188 181 186 178 178 167 168 172 174
326 344 303 17 30 61 234 320 10 355 40 29 358 33 124 140 99 66 284 155 138 137 131 95 34 4 333 326 307 322 322 316 316 319 236 212 198 194 188 176 169 172 142 146
44 238 320 21 25 352 5 3 11 344 103 108 2 292 297 302 41 107 283 230 134 133 140 152 103 6 332 295 301 302 312 310 304 308 293 227 219 221 216 199 175 127 87 53
29 351 357 44 20 10 0 354 353 4 359 348 325 289 282 309 332 66 338 312 208 117 156 241 254 273 245 285 288 286 289 285 299 301 307 355 62 82 120 161 104 56 155 144
288 32 344 5 7 352 343 344 351 344 332 247 307 311 321 317 328 315 279 262 244 225 236 246 261 262 257 255 265 274 277 280 291 279 140 86 49 41 103 44 173 155 163 149
45 28 355 314 329 329 333 332 327 328 323 322 282 275 264 263 270 272 267 256 241 220 219 267 260 266 270 263 255 261 272 265 279 185 134 129 124 77 40 27 145 135 155 126
350 324 2 322 323 315 308 307 305 309 311 312 320 318 299 248 238 240 239 247 204 202 228 256 267 260 259 269 268 261 258 250 239 157 164 152 153 122 108 34 30 83 136 159
11 17 343 341 340 335 340 335 324 328 322 308 298 315 318 320 262 252 250 206 192 217 260 264 265 265 265 262 268 265 254 234 182 171 169 157 151 150 144 145 149 161 350 58
33 11 321 312 317 324 322 315 325 312 306 302 305 300 322 313 302 278 185 180 203 232 248 247 264 282 283 266 267 267 256 240 193 183 169 164 153 162 148 138 132 111 111 50
24 324 306 317 312 315 318 310 301 300 310 307 298 298 301 315 278 231 190 201 193 236 271 292 296 286 281 273 269 261 248 232 206 182 161 158 152 173 166 146 153 150 138 125
276 294 289 285 286 296 297 298 280 296 294 293 267 309 336 328 325 325 289 256 239 304 281 282 279 278 282 275 255 246 237 228 188 171 161 156 162 165 155 131 149 156 136 151
336 321 315 325 301 292 296 298 281 280 313 279 320 330 304 290 277 264 283 291 17 327 299 282 295 291 280 263 265 245 176 181 168 158 158 145 161 143 146 156 144 131 145 152
293 290 288 317 301 315 305 294 295 279 315 314 298 287 296 265 262 300 303 52 331 304 304 303 304 303 267 256 197 189 170 177 156 164 147 147 145 150 142 136 131 132 142 124
322 320 322 329 325 320 311 319 302 282 239 264 278 334 323 307 326 332 311 238 224 276 307 296 299 291 274 240 197 128 200 177 166 151 131 130 129 127 128 119 109 107 104 100
310 309 306 302 297 305 312 306 325 315 311 316 319 327 312 314 324 302 318 245 8 347 326 322 324 319 300 239 176 154 94 180 135 127 125 129 119 112 110 111 102 97 91 87
272 279 282 284 291 296 301 305 311 303 303 306 309 302 299 317 327 47 71 91 46 0 354 343 343 8 13 25 132 118 105 109 108 117 114 105 105 106 101 97 95 92 88 85
282 271 270 291 293 292 298 288 292 289 286 287 287 288 292 304 282 173 107 100 76 20 8 5 353 24 38 25 62 81 105 100 102 102 97 96 98 95 92 91 88 88 88 85
296 288 283 281 283 291 291 285 286 287 289 291 285 284 306 302 10 40 95 113 115 42 7 5 29 70 67 61 69 73 79 83 86 91 92 93 94 93 93 93 93 93 90 83
308 308 307 287 285 280 279 279 288 281 273 296 261 267 277 229 149 139 117 122 100 69 5 6 36 68 79 80 85 87 87 86 80 84 87 89 87 89 91 88 89 90 87 87
309 301 291 283 263 264 278 285 280 275 309 307 306 304 231 95 115 124 129 130 113 113 31 45 46 79 91 91 89 88 87 88 89 88 90 92 96 94 94 96 91 90 95 97
286 269 273 272 268 265 266 271 287 294 292 314 304 307 126 121 122 129 121 122 111 98 72 31 40 63 95 94 93 93 93 92 93 97 96 94 92 88 83 85 86 92 93 94